www.pogodaiklimat.ru

Погода и климат >> Архив погоды >> Китай >> Шаньси >> Цзесю


ПОГОДА в Цзесю

  • Прогноз погоды в Цзесю
  • Монитор погоды в Цзесю

АРХИВ ПОГОДЫ в Цзесю

Время (UTC), дата Ветер
(напр.,м/с)
 
Видим.   Явления Облачность Т
(С)
Тd
(С)
f
(%)
Тe
(С)
Тes
(С)
Комфортность P
(гПа)
Po
(гПа)
Тmin
(С)
Tmax
(С)
R
(мм)
R24
(мм)
S
(см)
00 12.06 С 1 10 км 8/8 1000 м
[]
+23.7 +16.7 65 +27 +29 жарко 1007.3 924.5 0.0
03 12.06 СЗ 1 12 км 10/10 600 м
[]
+25.9 +15.3 52 +29 +29 душно 1006.2 924.1
06 12.06 С 2 н/о слаб. ливневой дождь 10/10 1000 м
[]
+22.8 +20.5 87 +30 +30 очень
душно
1005.8 922.9 +20.4 0.9
09 12.06 З 2 11 км {ливн. осадки} 10/10 1000 м
[]
+22.2 +18.8 81 +28 +28 душно 1006.0 922.9
12 12.06 Ю 2 11 км {ливн. осадки} 10/10 1000 м
[]
+22.3 +15.4 65 +26 +26 жарко 1006.4 923.7 0.4
18 12.06 ЮВ 2 8000 м ?/? +17.3 +17.1 99 +18 +18 1007.5 922.9 +27.8
21 12.06 З 2 6000 м дымка н/о +15.3 +15.1 99 +15 +15 1007.7 922.6
00 13.06 СЗ 1 8000 м 5/5
[]
+19.9 +17.3 85 +24 +27 комфорт 1008.6 924.7
03 13.06 В 1 9000 м 5/5
[]
+26.4 +16.6 55 +30 +41 душно 1007.4 925.3
06 13.06 Ю 2 24 км 1/1 600 м
[]
+30.4 +9.8 28 +30 +47 жарко 1004.5 923.7 +15.0
09 13.06 С 2 14 км 9/9 600 м
[]
+30.2 +11.7 32 +31 +31 жарко 1003.0 922.3
12 13.06 В 1 12 км 9/9 1000 м
[]
+26.3 +14.7 49 +29 +29 жарко 1003.7 921.9
18 13.06 штиль 0 10 км ?/? +19.2 +14.5 74 +20 +20 1004.6 922.5 +32.2
21 13.06 В 1 8000 м н/о +16.5 +16.3 99 +17 +17 1005.8 921.2
00 14.06 С 3 10 км 9/9
[]
+21.4 +15.7 70 +25 +25 комфорт 1006.2 922.9
03 14.06 С 3 13 км 9/9
[]
+27.7 +15.0 46 +30 +32 жарко 1005.1 923.5
06 14.06 С 3 24 км 5/5 600 м
[]
+32.7 +6.8 20 +31 +39 жарко 1002.3 922.2 +16.0
09 14.06 СЗ 3 24 км 8/8 600 м
[]
+33.1 +7.1 20 +31 +32 жарко 1000.9 921.1
12 14.06 ЮВ 2 8000 м 9/9 600 м
[]
+28.2 +9.5 31 +28 +28 жарко 1001.5 920.4
18 14.06 штиль 0 11 км ?/? +21.3 +10.5 50 +23 +23 комфорт 1002.8 919.7 +34.1
21 14.06 З 1 10 км ?/? +19.3 +13.2 68 +22 +22 комфорт 1003.8 920.1
00 15.06 СЗ 1 10 км 9/9
[]
+24.0 +14.7 56 +27 +27 жарко 1004.3 921.8
03 15.06 С 2 12 км 10/10
[]
+28.3 +13.0 39 +30 +30 жарко 1004.0 922.7
06 15.06 ЮЗ 6 15 км 10/10 1000 м
[]
+29.4 +10.5 31 +30 +30 жарко 1002.6 921.7 +18.9
09 15.06 Ю 4 15 км 9/9 1000 м
[]
+29.3 +10.4 31 +29 +30 жарко 1001.5 920.6
12 15.06 ЮЗ 2 13 км 10/10 1000 м
[]
+27.5 +10.7 35 +28 +28 жарко 1002.0 920.6
18 15.06 Ю 2 12 км ?/? +25.1 +10.5 40 +26 +26 жарко 1002.5 921.2 +31.7
21 15.06 ЮЗ 2 11 км ?/? +23.8 +11.5 46 +25 +25 комфорт 1002.8 920.4
00 16.06 Ю 1 11 км ?/? +25.0 +14.5 52 +28 +28 жарко 1004.5 922.3
03 16.06 З 2 10 км ?/? +27.4 +14.4 45 +30 +30 жарко 1004.3 922.7
06 16.06 З 2 14 км 9/9 1000 м
[]
+30.3 +14.0 37 +32 +34 жарко 1003.0 922.3 +22.0
09 16.06 В 1 12 км 9/9 1000 м
[]
+30.7 +14.3 37 +33 +33 душно 1001.1 920.6
12 16.06 С 1 13 км 9/9 1000 м
[]
+27.7 +12.1 38 +29 +29 жарко 1002.3 921.0
18 16.06 С 1 6000 м дымка ?/? +18.6 +17.3 92 +21 +21 комфорт 1006.7 922.6 +31.5
21 16.06 штиль 0 7000 м дымка ?/? +17.5 +17.3 99 +17 +17 1007.9 923.4
00 17.06 С 1 7000 м 6/6
[]
+21.3 +17.7 80 +25 +28 комфорт 1008.3 924.8
03 17.06 З 1 9000 м 9/9
[]
+26.6 +15.0 49 +29 +32 жарко 1007.6 925.5
06 17.06 В 1 19 км 9/9
[]
+31.5 +11.8 30 +32 +34 жарко 1005.0 924.4 +17.2
09 17.06 З 3 20 км 9/9 600 м
[]
+32.7 +13.4 31 +34 +34 очень
жарко
1002.5 922.4
12 17.06 Ю 4 14 км 9/9 1000 м
[]
+29.0 +12.4 36 +30 +30 жарко 1003.8 922.7
18 17.06 ЮЗ 2 11 км ?/? +23.3 +13.2 53 +26 +26 жарко 1005.1 922.4 +33.4
21 17.06 Ю 2 9000 м н/о +19.9 +14.7 72 +23 +23 комфорт 1005.8 922.1
00 18.06 штиль 0 10 км 8/8
[]
+24.5 +14.3 53 +27 +29 жарко 1005.7 923.3
03 18.06 С 1 19 км 9/9
[]
+31.2 +13.9 35 +33 +35 жарко 1003.9 923.3
06 18.06 С 2 30 км 9/9 600 м
[]
+35.8 +11.4 23 +35 +37 очень
жарко
1000.7 921.5 +19.1
09 18.06 Ю 4 19 км 9/9 600 м
[]
+33.3 +12.9 29 +34 +34 очень
жарко
1000.1 920.4
12 18.06 Ю 3 14 км 9/9
[]
+31.0 +13.3 34 +32 +32 жарко 1000.7 920.3
18 18.06 СЗ 1 12 км ?/? +25.7 +13.9 48 +28 +28 жарко 1001.5 919.7 +35.8
21 18.06 СВ 1 11 км ?/? +24.6 +13.8 51 +27 +27 жарко 1002.0 919.9

 

Местоположение метеостанции Цзесю (Шаньси, Китай): широта 37.03 долгота 111.91 высота над уровнем моря 745 м.

В архиве по умолчанию представлена погода в Цзесю за последнюю неделю. Архивные данные за месяц целиком и за предыдущие месяцы, начиная с января 2011 года, Вы можете получить, выбрав интересующий диапазон дат из раскрывающегося списка и нажав кнопку "Ввод!".


*Определитесь, кто Вы:
робот инопланетянин человек

Внимание! Время в таблицах - всемирное. Для получения местного времени необходимо прибавить поправку, которая равна 8 ч.

Смотрите также архив погоды в соседних городах и на ближайших метеорологических станциях:

Погода в Лиши (Шаньси, Китай) (89 км)
Погода в Юйшэ (Шаньси, Китай) (95 км)
Погода в Тайюанье (Шаньси, Китай) (101 км)
Погода в Яньчэне (Цзянсу, Китай) (178 км)
Погода в Юаньпине (Шаньси, Китай) (203 км)
Погода в Яньане (Шэньси, Китай) (220 км)
Погода в Синтае (Хэбэй, Китай) (230 км)
Погода в Юньчэне (Шаньси, Китай) (233 км)
Погода в Юйлине (Гуанси-Чжуанский автономный район, Китай) (236 км)
Погода в Шицзячжуане (Хэбэй, Китай) (247 км)

Пояснения к столбцам:

Ветер - указаны скорость ветра в м/с - средняя за 10 мин, порывы в срок и между сроками (в фигурных скобках) и направление, откуда дует ветер: С - северный, СВ - северо-восточный, В - восточный, ЮВ - юго-восточный, Ю - южный, ЮЗ - юго-западный, З - западный, СЗ - северо-западный.
Видимость - горизонтальная дальность видимости в метрах или километрах. При видимости от 1 до 10 км при отсутствии осадков обычно наблюдается дымка, при ухудшении видимости до 1 км и менее - туман. В сухую погоду видимость может ухудшаться дымом, пылью или мглою.
Явления - указаны атмосферные явления, наблюдавшиеся в срок или в последний час перед сроком; фигурными скобками обозначены явления, наблюдавшиеся между сроками (за 1-3 часа до срока); квадратными скобками обозначены град или гололедные отложения с указанием их диаметра в мм.
Облачность - указаны через наклонную черту общая и нижняя облачность в баллах и высота нижней границы облаков в метрах; квадратными скобками обозначены формы облаков: Ci - перистые, Cs - перисто-слоистые, Cc - перисто-кучевые, Ac - высококучевые, As - высокослоистые, Sc - слоисто-кучевые, Ns - слоисто-дождевые, Cu - кучевые, Cb - кучево-дождевые. Подробнее классификацию облаков см. в Атласе облаков (PDF).
T - Температура воздуха - температура, измеренная на высоте 2 м над землей.
Td - Температура точки росы - температура, при понижении до которой содержащийся в воздухе водяной пар достигнет насыщения.
f - Относительная влажность воздуха - влажноcть воздуха, измеренная на высоте 2 м над землей.
Te - Эффективная температура - температура, которую ощущает одетый по сезону человек в тени. Характеристика душности погоды. При расчете учитывается влияние влажности воздуха и скорости ветра на теплоощущения человека.
Tes - Эффективная температура на солнце - температура, которую ощущает человек, с поправкой на солнечный нагрев. Характеристика знойности погоды. Зависит от высоты солнца над горизонтом, облачности и скорости ветра. Ночью, в пасмурную погоду, а также при ветре 12 м/с и более поправка равна нулю.
P - Атмосферное давление - приведенное к уровню моря атмосферное давление.
Po - Атмосферное давление - измеренное на уровне метеостанции атмосферное давление.
Tmin - Минимальная температура - минимум температуры воздуха на высоте 2 м над землей.
Tmax - Максимальная температура - максимум температуры воздуха на высоте 2 м над землей.
R - Количество осадков - Количество выпавших осадков за период времени, мм. При наведении курсора мыши на число - период времени, за который выпало указанное количество осадков.
R24 - Количество осадков - Количество выпавших осадков за 24 часа, мм.
S - Снежный покров - Высота снежного покрова, см. При наведении курсора мыши на число - состояние снежного покрова и степень покрытия местности в баллах.